ROMMA est une association bénévole à but non lucratif. Votre soutien est indispensable : ADHERER à ROMMA ou FAIRE un DON

Voiron - (38, Isère)

Voironnais (300 m)   Longitude: 05° 35' E   Latitude: 45° 23' N Station partenaire n°109
 

Détail journalier du     <<     >>

Température Precipitation Humidité Pression Vent Dir Rafale Dir. rafale Ensol.
Heure (°C) (mm) (%) (hPa) (km/h) (km/h) (min)
01:00 11.109210242OSO6SSE0
02:00 12.308710242NE16SSE0
03:00 12.008610247ESE15ESE0
04:00 10.109110242SSE11ESE0
05:00 9.5092102406S0
06:00 9.109310241S6S0
07:00 8.909310242SSE10SSE0
08:00 9.309310242SSE10SO0
09:00 9.409210242NO10SSE0
10:00 11.708510252SSE8SSE60
11:00 13.907910252S10S60
12:00 15.707310242S10SSO60
13:00 16.906910244SSE13SSE60
14:00 19.106210242SSE10S60
15:00 20.106210232SE11S60
16:00 20.806110232SE13SE60
17:00 20.906110233SSO10S60
18:00 21.206110221SSO5SSO60
19:00 17.407710232O6NO0
20:00 15.5083102303NNO0
21:00 14.20861023000
22:00 13.30881024000
23:00 12.60891024000
minuit 12.10901024000

Graphique du 26-10-2019

 

Serveur OMMA